Location: Alma
(38.7220°N, 88.9090°W)
Time: 06:05:56
(UTC-06:00)

Vanguard 2 - Pass Details

Date: 17 November 2019
Orbit: 553 x 2938 km, 32.9° (Epoch: 10 December)

Event Time Altitude Azimuth Distance (km) Brightness Sun altitude
Rises 10:01:05 0° 252° (WSW) 4,710 11.5 27.7°
Reaches altitude 10° 10:04:57 10° 247° (WSW) 3,325 10.8 28.1°
Maximum altitude 10:12:16 47° 177° (S) 1,182 10.0 28.7°
Drops below altitude 10° 10:17:00 10° 104° (ESE) 2,164 10.4 29.0°
Sets 10:19:03 0° 97° (E) 2,934 10.9 29.2°
